[[{"header":{"parameterUnit":"m.s-1","parameterCategory":1,"la1":30.2991,"la2":30.254,"lo1":-89.0895,"lo2":-89.0444,"dy":0.0017,"dx":0.0017,"nx":28,"ny":28,"refTime":"2024-07-18T03:00:00:Z","depth":0,"parameterNumber":2,"parameterNumberName":"U-component_of_WINDS"},"data":[0,0,0,0,0,0,0,0,0,0,0,0,0,0,0,0,0,0,0,0,0,0,0,0,0,0,0,0,0,0,0,0,0,0,0,0,0,0,0,0,0,0,0,0,0,0,0,0,0,0,0,0,0,0,0,0,0,0,2.0698,2.07,0,2.0864,2.0866,2.0868,2.0934,2.0933,2.0933,2.0933,2.1105,2.111,2.1115,0,0,0,0,0,0,0,0,0,0,0,0,0,2.044,2.0445,2.0698,2.07,2.0702,2.0863,2.0866,2.0868,2.0934,2.0933,2.0933,2.0932,2.1103,2.1109,2.1115,0,0,0,0,0,0,0,0,0,0,0,0,0,2.0574,2.0446,2.0697,2.0754,2.0761,2.0863,2.0866,2.0869,2.0934,2.0933,2.0933,2.0932,2.1101,2.1109,2.1116,2.1175,0,0,2.1139,2.1142,0,0,0,0,0,0,0,0,2.0566,2.0583,2.0744,2.075,2.0758,2.0877,2.0838,2.0971,2.0934,2.0868,2.0933,2.0932,2.103,2.1043,2.1076,2.1183,2.119,2.114,2.1144,2.1147,2.1149,0,0,0,0,0,0,0,2.0557,2.0576,2.0764,2.0746,2.0755,2.0772,2.079,2.0864,2.0951,2.0874,2.0879,2.0898,2.1034,2.1069,2.108,2.1193,2.1139,2.1146,2.1151,2.1154,2.1357,2.1357,0,0,0,0,0,0,2.0538,2.0568,2.0758,2.0768,2.0658,2.0777,2.0798,2.084,2.095,2.0966,2.0898,2.09,2.1056,2.1072,2.1087,2.1163,2.1147,2.1154,2.1159,2.1356,2.1357,2.1358,0,0,0,0,0,0,2.0532,2.0554,2.0752,2.067,2.0696,2.0782,2.0829,2.0843,2.0878,2.0968,2.0984,2.0917,2.1056,2.1076,2.1152,2.117,2.1158,2.1164,2.1355,2.1356,2.1357,2.1315,0,0,0,0,0,0,2.0524,2.0552,2.0574,2.067,2.07,2.0813,2.083,2.0847,2.0891,2.0895,2.0991,2.1006,2.1057,2.1141,2.116,2.118,2.117,2.1353,2.1355,2.1357,2.1315,2.1315,2.1314,0,0,0,0,0,2.0515,2.0556,2.0575,2.0597,2.073,2.0814,2.0832,2.0889,2.0892,2.0915,2.0973,2.1003,2.1165,2.1148,2.117,2.1192,2.1353,2.1355,2.1357,2.1315,2.1315,2.1314,0,0,0,0,0,0,2.0461,2.057,2.0592,2.0665,2.073,2.0825,2.0857,2.0887,2.0953,2.0954,2.1023,2.1044,2.1115,2.1162,2.1141,2.1255,2.1261,2.1267,2.1222,2.1222,2.1222,2.1209,2.1177,0,0,0,0,0,2.0458,2.0516,2.0608,2.0664,2.0695,2.077,2.0809,2.0847,2.0918,2.0946,2.1009,2.1077,2.1143,2.1185,2.1251,2.1322,2.1344,2.1349,2.1348,2.1347,2.1352,2.1393,2.1396,2.1364,2.1364,2.1364,0,0,2.0451,2.0518,2.0551,2.0655,2.071,2.0769,2.0793,2.0855,2.09,2.0956,2.1031,2.108,2.116,2.1234,2.1269,2.1275,2.1366,2.135,2.1349,2.1354,2.1396,2.1399,2.1401,2.1366,2.1366,2.1365,0,0,2.047,2.0526,2.0579,2.0633,2.0715,2.0765,2.0777,2.0869,2.0903,2.098,2.1022,2.1077,2.119,2.1245,2.1288,2.1328,2.1357,2.1347,2.1345,2.1384,2.1387,2.1389,2.1404,2.1408,2.1352,2.1352,2.1352,0,2.0452,2.0543,2.0603,2.0662,2.0707,2.0759,2.0813,2.0863,2.0963,2.0993,2.0997,2.1139,2.1197,2.1284,2.1294,2.1327,2.1344,2.1337,2.1382,2.1385,2.1388,2.1403,2.1408,2.135,2.135,2.135,2.1351,0,2.0517,2.0579,2.0612,2.0706,2.0755,2.0811,2.088,2.0922,2.0956,2.1005,2.1083,2.1154,2.1235,2.1259,2.1293,2.1351,2.1352,2.1368,2.1375,2.1388,2.1403,2.1409,2.1347,2.1348,2.1349,2.1349,0,0,2.0507,2.0633,2.0644,2.0687,2.0782,2.0831,2.0891,2.0969,2.1004,2.1071,2.1123,2.1216,2.1232,2.128,2.1321,2.1356,2.1383,2.1368,2.1371,2.1368,2.1451,2.1439,2.1444,2.1403,2.1404,2.1405,2.1445,0,2.0539,2.0646,2.0701,2.0785,2.0844,2.0894,2.0945,2.1009,2.1057,2.1114,2.1167,2.1233,2.1248,2.1277,2.1314,2.1372,2.14,2.137,2.1453,2.1455,2.1431,2.1452,2.1439,2.1472,2.1451,2.1452,2.1453,0,2.059,2.0655,2.0745,2.0832,2.0859,2.0904,2.0981,2.1035,2.1108,2.1141,2.1194,2.1235,2.13,2.1302,2.1392,2.137,2.1407,2.1441,2.1444,2.1454,2.1454,2.1463,2.1485,2.1489,2.1462,2.1462,2.1461,0,2.0573,2.0684,2.0752,2.0788,2.0892,2.0922,2.0967,2.104,2.1084,2.1151,2.118,2.1254,2.1294,2.1351,2.141,2.1406,2.1495,2.1502,2.1525,2.1523,2.1541,2.1539,2.1569,2.1565,2.1565,2.1565,2.1564,0,2.0603,2.0656,2.0746,2.0788,2.0848,2.0912,2.097,2.1019,2.1084,2.1137,2.1185,2.1233,2.1309,2.1367,2.1414,2.1482,2.15,2.1529,2.154,2.1524,2.1521,2.155,2.1549,2.1566,2.1566,2.1565,2.1565,0,2.0595,2.0657,2.0735,2.0827,2.0851,2.0892,2.0971,2.1014,2.1063,2.1129,2.1149,2.1227,2.1298,2.1363,2.1458,2.1489,2.1558,2.1574,2.1533,2.154,2.1558,2.1555,2.1608,2.1618,2.1606,2.1606,2.1606,0,2.0609,2.0651,2.0747,2.0786,2.0829,2.089,2.0935,2.0999,2.1044,2.1131,2.1163,2.1237,2.13,2.1411,2.1477,2.155,2.1567,2.1581,2.1579,2.1561,2.1568,2.1565,2.1569,2.158,2.158,2.158,2.158,0,2.0629,2.0658,2.072,2.0793,2.0844,2.0905,2.0967,2.0996,2.1072,2.112,2.1192,2.1241,2.1337,2.1411,2.149,2.1538,2.1572,2.158,2.1589,2.1573,2.1548,2.1561,2.1531,2.1578,2.1578,2.1578,2.1579,2.1579,2.0633,2.0672,2.0746,2.0814,2.0867,2.0924,2.0969,2.1024,2.1085,2.1168,2.1202,2.1276,2.1349,2.146,2.1507,2.1566,2.1573,2.1586,2.159,2.1592,2.1589,2.1538,2.1581,2.1581,2.1581,2.1581,2.1582,0,2.0655,2.0705,2.0766,2.0852,2.0905,2.0931,2.1001,2.1044,2.1108,2.1173,2.1234,2.1317,2.1389,2.146,2.1535,2.1569,2.1586,2.1587,2.1585,2.1595,2.1578,2.1563,2.1571,2.1571,2.1571,2.1571,2.1571,2.1571,2.0673,2.0741,2.0778,2.0873,2.0923,2.0995,2.1033,2.1086,2.1138,2.1229,2.1288,2.1334,2.1402,2.1483,2.155,2.1569,2.1595,2.159,2.1614,2.1596,2.1597,2.1597,2.1583,2.1595,2.1595,2.1627,2.1627,2.1627]},{"header":{"parameterUnit":"m.s-1","parameterCategory":1,"la1":30.2991,"la2":30.254,"lo1":-89.0895,"lo2":-89.0444,"dy":0.0017,"dx":0.0017,"nx":28,"ny":28,"refTime":"2024-07-18T03:00:00:Z","depth":0,"parameterNumber":3,"parameterNumberName":"V-component_of_WINDS"},"data":[0,0,0,0,0,0,0,0,0,0,0,0,0,0,0,0,0,0,0,0,0,0,0,0,0,0,0,0,0,0,0,0,0,0,0,0,0,0,0,0,0,0,0,0,0,0,0,0,0,0,0,0,0,0,0,0,0,0,0.7115,0.7115,0,0.7064,0.7064,0.7063,0.6997,0.6996,0.6995,0.6994,0.6943,0.6942,0.6942,0,0,0,0,0,0,0,0,0,0,0,0,0,0.7157,0.7156,0.7115,0.7115,0.7114,0.7064,0.7064,0.7063,0.6997,0.6996,0.6994,0.6993,0.6943,0.6942,0.6942,0,0,0,0,0,0,0,0,0,0,0,0,0,0.7126,0.7156,0.7116,0.7075,0.7071,0.7064,0.7063,0.7063,0.6997,0.6996,0.6994,0.6992,0.6943,0.6942,0.6942,0.6971,0,0,0.694,0.694,0,0,0,0,0,0,0,0,0.7127,0.7124,0.7082,0.7078,0.7073,0.7035,0.7059,0.7032,0.6998,0.7025,0.6994,0.6992,0.6975,0.6971,0.6965,0.6969,0.6966,0.694,0.694,0.694,0.6939,0,0,0,0,0,0,0,0.713,0.7126,0.7095,0.7081,0.7076,0.706,0.7054,0.7054,0.701,0.7023,0.7018,0.7013,0.6972,0.6966,0.6964,0.6966,0.694,0.694,0.6939,0.6939,0.6988,0.699,0,0,0,0,0,0,0.7138,0.7128,0.7097,0.7094,0.7097,0.706,0.7053,0.7049,0.701,0.7002,0.7014,0.701,0.6968,0.6964,0.6962,0.6992,0.694,0.6939,0.6939,0.6987,0.6989,0.699,0,0,0,0,0,0,0.7139,0.7136,0.7099,0.711,0.7104,0.7061,0.7057,0.7049,0.7043,0.7003,0.6995,0.7016,0.6966,0.6962,0.6969,0.6989,0.6939,0.6938,0.6985,0.6987,0.6989,0.7053,0,0,0,0,0,0,0.714,0.7136,0.7147,0.711,0.7103,0.7107,0.7058,0.7049,0.7042,0.7036,0.7003,0.6996,0.6965,0.697,0.6968,0.6987,0.6938,0.6983,0.6986,0.6989,0.7049,0.7058,0.7065,0,0,0,0,0,0.7142,0.7168,0.7148,0.7144,0.7116,0.7108,0.7104,0.7068,0.7044,0.7054,0.7028,0.6997,0.6987,0.6971,0.6969,0.6988,0.6981,0.6985,0.6988,0.7046,0.7056,0.7065,0,0,0,0,0,0,0.7209,0.7162,0.714,0.7154,0.7135,0.7097,0.7109,0.708,0.7068,0.7063,0.7019,0.7012,0.7023,0.7006,0.6989,0.7013,0.6979,0.6983,0.7024,0.7033,0.7041,0.7044,0.6937,0,0,0,0,0,0.7225,0.7222,0.7182,0.7199,0.719,0.7151,0.7147,0.712,0.7099,0.7091,0.7066,0.7047,0.7039,0.7036,0.7027,0.7047,0.7038,0.7059,0.7067,0.7073,0.7076,0.7084,0.7093,0.7002,0.7002,0.7002,0,0,0.7259,0.7233,0.7234,0.7211,0.7194,0.7192,0.7145,0.7146,0.7144,0.7091,0.7095,0.7076,0.7052,0.7064,0.7069,0.7051,0.71,0.7078,0.7084,0.7083,0.7089,0.7097,0.7105,0.7005,0.7004,0.7004,0,0,0.7319,0.73,0.7311,0.7294,0.7267,0.7241,0.7244,0.7209,0.7194,0.7197,0.7157,0.7155,0.7143,0.7127,0.7118,0.7171,0.7141,0.7169,0.721,0.7218,0.7225,0.7231,0.7249,0.7256,0.7173,0.7173,0.7173,0,0.7364,0.7359,0.732,0.7322,0.7313,0.7265,0.7275,0.7261,0.7234,0.7228,0.7209,0.7192,0.7173,0.718,0.7193,0.7187,0.7188,0.7173,0.7227,0.7233,0.7238,0.7254,0.7261,0.7176,0.7176,0.7176,0.7175,0,0.7416,0.7413,0.7425,0.7399,0.7391,0.7398,0.7359,0.7356,0.733,0.7306,0.7309,0.7284,0.7268,0.7268,0.7244,0.7272,0.7262,0.7235,0.72,0.7251,0.7265,0.7271,0.7182,0.718,0.7179,0.7178,0,0,0.7516,0.7467,0.7472,0.7459,0.7426,0.7423,0.7428,0.7412,0.7409,0.7392,0.7394,0.7385,0.736,0.7349,0.7322,0.7329,0.7371,0.7302,0.73,0.7314,0.7399,0.7418,0.7426,0.7351,0.7352,0.7353,0.7401,0,0.7569,0.7573,0.7537,0.755,0.7547,0.7501,0.7504,0.7485,0.7462,0.7456,0.7431,0.7425,0.7393,0.7386,0.7391,0.7365,0.7387,0.7361,0.7352,0.7352,0.7358,0.7434,0.7455,0.7501,0.7406,0.7407,0.7408,0,0.7631,0.7616,0.7629,0.7594,0.7591,0.7595,0.7577,0.7572,0.7548,0.7531,0.7519,0.7488,0.7489,0.7456,0.7457,0.744,0.7434,0.7421,0.7421,0.7418,0.7383,0.7432,0.7515,0.7521,0.7417,0.7416,0.7416,0,0.7701,0.7684,0.7689,0.768,0.764,0.7643,0.7627,0.7602,0.7594,0.7579,0.7573,0.7558,0.755,0.7539,0.7505,0.7484,0.7509,0.7474,0.7494,0.7495,0.7501,0.7501,0.7583,0.7499,0.7499,0.7499,0.7499,0,0.7763,0.7773,0.772,0.7723,0.7732,0.7691,0.7701,0.768,0.7658,0.7656,0.7616,0.7615,0.757,0.7564,0.7537,0.7541,0.7538,0.7524,0.7516,0.7527,0.7528,0.7521,0.7517,0.7501,0.75,0.75,0.75,0,0.7842,0.7808,0.781,0.7772,0.7763,0.7771,0.7738,0.7739,0.7714,0.7712,0.7709,0.767,0.766,0.7625,0.7607,0.7589,0.7601,0.7587,0.7609,0.7604,0.7626,0.7624,0.7705,0.7713,0.7626,0.7627,0.7628,0,0.7884,0.789,0.7852,0.7847,0.7832,0.7826,0.7818,0.7778,0.7771,0.7744,0.7748,0.7735,0.7723,0.771,0.768,0.7666,0.7651,0.768,0.7648,0.7658,0.7649,0.7649,0.7649,0.7687,0.7688,0.7689,0.769,0,0.796,0.7942,0.7932,0.7915,0.7906,0.7892,0.7874,0.7873,0.7828,0.7823,0.7812,0.7803,0.7784,0.7771,0.7752,0.7735,0.7705,0.77,0.7704,0.7714,0.7725,0.7718,0.7626,0.7698,0.7697,0.7697,0.7696,0.7696,0.802,0.8023,0.7997,0.7986,0.7969,0.7953,0.7952,0.7927,0.7917,0.7898,0.7875,0.7868,0.7843,0.7814,0.7799,0.7792,0.7775,0.7781,0.7782,0.7784,0.7789,0.7727,0.7789,0.7788,0.7788,0.7788,0.7787,0,0.8093,0.8074,0.8065,0.8041,0.8033,0.8005,0.7984,0.7979,0.7973,0.7952,0.794,0.7928,0.7915,0.7884,0.7868,0.7869,0.7855,0.7866,0.7865,0.7861,0.7805,0.7803,0.7878,0.7878,0.7878,0.7878,0.7878,0.7878,0.813,0.8133,0.8112,0.8106,0.8086,0.8078,0.8068,0.8054,0.8037,0.8024,0.8014,0.7993,0.7968,0.795,0.7937,0.7928,0.7924,0.794,0.7926,0.7874,0.7866,0.7857,0.7855,0.7939,0.794,0.7983,0.7983,0.7983]}]]